Tracking 19709 objects as of 18-Jun-2019
HD Live streaming from Space Station
objects crossing your sky now

SL-8 DEB

Track SL-8 DEB now!
10-day predictions


NORAD ID: 24818
Int'l Code: 1977-087C
Perigee: 946.2 km
Apogee: 994.8 km
Inclination: 83.0 °
Period: 104.3 minutes
Semi major axis: 7341 km
RCS: 0.0052 m2 (small)
Launch date: September 13, 1977
Source: Commonwealth of Independent States (former USSR) (CIS)
Launch site: PLESETSK MISSILE AND SPACE COMPLEX (PKMTR)

Note: This is SATELLITE DEBRIS
aabbcc
Your satellite tracking list
Your tracking list is empty




NASA's NSSDC Master Catalog

Two Line Element Set (TLE):
1 24818U 77087C   19169.07896382  .00000144  00000-0  12304-3 0  9993
2 24818  82.9676 199.3465 0033134  68.0101 320.4701 13.80151079 98100
Source of the keplerian elements: AFSPC